Wind_Speed
21 21 20 18 16 15 15 15 13 13 12 13 12 14 15 15 15 15 15 15 10 7 7 9 10 11 11 11 13 15 16 16 14 12 12 10 9 13 15 14 14 16 17 18 21 22 23 24 27 30 22 14 18 27 31 33 34 32 30 28 26 26 22 15 10 12 22 27 24 25 27 26 26 27 26 23 22 23 23 23 22 20 19 20 20
22 21 20 18 15 15 15 14 14 12 7 10 11 12 12 13 15 16 16 17 14 8 4 3 4 6 7 9 12 12 12 11 10 10 10 9 9 11 11 11 15 20 22 22 23 21 20 22 25 26 22 17 20 27 30 32 32 29 28 27 28 31 28 23 18 13 18 27 28 27 29 27 26 27 27 25 24 23 23 24 24 23 22 21 21
23 21 19 17 16 16 16 16 16 14 8 8 10 11 11 12 13 14 14 13 11 8 5 2 2 3 4 6 7 8 8 8 9 9 8 8 9 11 12 11 13 17 18 18 18 16 16 19 22 22 20 18 19 24 27 27 26 24 23 23 24 28 29 26 24 19 18 23 26 25 24 24 24 26 27 26 23 22 23 24 22 20 19 19 22
22 21 19 16 15 14 14 12 11 10 8 7 8 8 8 7 7 6 5 4 3 4 5 4 5 6 7 7 8 8 8 8 9 10 10 11 12 13 12 11 11 12 14 15 17 17 17 20 22 21 19 19 20 23 23 23 25 24 22 23 24 25 26 25 25 25 20 17 20 21 21 21 23 24 24 23 22 22 24 25 24 22 22 21 22
17 19 17 15 13 11 10 8 6 4 3 4 4 2 1 3 7 6 5 6 5 3 3 4 5 7 8 8 9 9 10 9 9 10 11 12 12 12 11 12 12 12 14 18 21 21 20 22 23 22 21 23 24 24 21 20 22 22 22 24 23 22 24 22 21 22 19 15 17 21 20 20 21 22 21 20 22 24 25 25 24 22 21 21 22
14 14 13 11 10 8 7 5 3 1 1 1 1 4 5 4 6 7 6 6 5 4 4 5 6 7 9 9 10 11 11 11 10 10 11 12 12 11 9 8 9 11 13 15 17 18 19 21 22 22 23 24 26 27 26 25 24 25 25 24 22 20 20 19 17 16 14 13 15 17 18 19 20 22 23 23 24 24 23 22 21 20 19 21 22
13 11 9 8 7 6 5 5 5 5 5 5 6 7 5 4 5 6 6 6 6 5 5 5 5 7 9 10 10 13 12 10 8 8 9 10 10 10 10 10 11 13 14 16 18 19 20 21 21 22 22 23 24 25 26 26 26 27 26 24 24 24 24 24 22 16 10 10 13 14 16 19 20 21 24 25 24 22 20 17 17 18 19 20 20
12 10 9 9 8 7 8 9 7 7 7 7 6 7 6 5 6 6 5 5 7 8 7 6 7 8 9 9 10 11 8 7 8 9 10 11 12 13 14 15 15 16 17 18 19 20 21 22 22 22 21 22 22 22 20 19 19 20 21 20 22 26 26 24 21 16 12 14 17 17 17 19 20 21 22 20 17 18 18 16 16 17 18 18 17
12 12 12 12 12 11 11 10 8 8 8 7 7 7 7 6 5 7 7 6 7 8 8 9 9 9 8 8 9 7 6 9 12 13 14 15 16 16 17 17 17 18 18 18 18 18 19 19 20 21 22 22 23 23 22 19 16 16 17 17 18 21 21 19 16 14 13 13 15 15 15 18 19 20 20 16 14 15 16 15 14 14 14 14 13
14 14 15 14 12 12 11 10 9 9 9 7 6 6 6 7 7 7 8 8 7 8 8 8 8 7 7 9 8 7 8 12 14 15 16 18 19 20 21 19 18 17 18 18 18 18 18 19 21 22 23 23 23 23 22 20 18 16 15 14 14 15 15 17 16 13 12 12 12 11 11 13 17 19 16 12 9 8 7 7 8 9 9 9 11
15 16 16 14 13 12 12 11 11 11 9 7 7 7 7 8 8 8 8 7 7 7 7 7 8 7 8 9 8 8 10 14 16 18 20 21 22 24 22 18 17 18 18 18 18 18 18 19 21 22 23 22 22 21 21 20 18 17 16 15 15 14 13 15 16 14 14 14 13 13 12 12 13 12 9 6 5 5 5 5 7 8 7 6 6
17 17 16 14 14 14 13 11 11 10 8 7 9 10 9 8 8 8 8 7 7 7 8 8 9 9 10 11 9 9 12 16 17 21 23 23 25 26 21 16 16 17 17 17 17 17 18 19 20 21 21 21 21 20 20 19 17 16 17 17 16 15 14 14 15 15 15 14 14 14 14 12 11 10 8 7 8 9 9 8 7 7 8 8 8
17 17 16 14 14 13 12 11 11 10 9 9 9 9 9 9 9 9 8 8 8 8 9 10 11 11 12 11 9 8 13 17 19 24 25 25 28 27 20 16 16 16 16 17 17 17 18 19 20 20 20 19 20 18 16 16 16 14 15 16 14 13 12 12 13 14 15 15 15 14 14 12 10 9 8 7 7 8 8 8 7 8 10 11 11
17 17 16 14 13 11 11 12 11 10 10 10 10 10 10 9 9 9 9 9 9 10 11 12 12 12 12 12 10 9 14 19 22 25 27 27 29 27 20 16 16 16 16 17 17 18 19 20 19 19 20 20 20 16 13 13 14 14 15 16 14 13 13 13 12 13 13 13 15 16 15 13 11 10 10 8 8 9 10 9 9 9 12 13 14
18 17 16 15 13 12 12 11 11 10 10 10 10 10 9 10 10 10 9 10 11 10 10 10 11 13 13 13 12 10 13 18 23 26 27 29 30 26 19 16 16 16 16 17 18 19 20 20 20 20 22 21 17 13 13 13 14 14 15 16 15 14 15 14 12 13 14 12 12 14 14 12 12 11 10 7 7 9 11 11 10 10 12 14 16
18 17 16 15 13 12 12 11 11 10 10 10 10 10 10 10 10 10 9 9 10 10 11 12 12 14 15 15 14 12 13 17 23 25 27 30 30 24 17 15 16 16 17 17 18 19 20 20 20 21 21 18 14 13 15 15 13 13 14 15 15 15 14 12 10 11 12 12 12 12 11 11 10 10 9 7 7 8 10 10 9 10 11 12 13
17 17 15 15 14 12 12 11 11 10 10 10 10 10 10 10 9 8 8 9 11 13 15 15 14 14 15 15 15 14 14 17 21 24 27 30 28 21 15 15 15 15 16 17 18 19 19 18 19 20 18 14 13 14 15 13 11 10 11 12 14 14 13 10 8 6 6 8 9 9 8 9 9 8 8 8 8 8 8 8 8 8 8 7 7
17 16 15 14 14 13 12 11 11 10 10 10 9 10 9 8 8 8 10 12 14 14 14 14 14 15 15 15 15 15 15 16 19 24 27 28 25 19 15 15 15 15 17 18 19 19 19 18 18 17 14 11 13 15 14 12 10 9 10 11 11 11 11 12 10 8 6 6 5 3 4 7 7 6 5 5 6 5 5 7 8 8 7 6 5
15 15 15 14 14 13 12 11 11 11 10 9 9 8 8 8 9 10 12 13 13 12 12 13 14 14 14 14 14 15 16 16 19 24 25 24 23 19 14 12 14 15 17 18 18 19 19 18 16 15 14 13 15 15 14 12 10 8 9 10 9 7 9 12 13 11 10 10 9 8 8 8 7 6 5 5 5 4 4 6 8 8 7 7 7
15 15 15 15 14 13 12 12 12 11 10 10 8 7 8 9 10 10 11 11 10 11 12 12 13 13 13 14 14 15 16 16 18 23 23 20 20 19 14 12 14 17 18 18 18 19 19 17 14 14 14 14 14 13 12 11 10 9 9 8 7 7 9 11 12 12 11 11 11 11 10 10 9 9 9 7 6 5 4 5 6 6 6 7 8
16 15 15 14 13 13 13 13 12 11 10 9 8 8 8 9 9 10 10 9 10 12 12 12 13 13 13 14 15 16 17 17 19 22 20 18 18 18 17 16 16 18 19 18 18 19 18 16 14 14 15 13 11 10 10 9 8 7 7 7 7 9 10 10 10 10 10 10 10 11 12 12 11 10 10 9 9 9 6 5 5 5 5 7 8
16 15 15 14 13 13 13 12 11 10 9 9 8 7 8 9 9 8 8 9 12 13 12 12 13 13 14 15 16 17 17 17 21 22 19 17 17 17 18 18 18 18 18 18 19 20 19 16 15 14 13 10 6 6 9 10 8 6 7 8 8 9 10 8 7 7 8 9 10 11 14 15 13 12 12 12 12 11 10 8 6 6 6 7 7
16 16 15 14 13 13 13 12 11 10 9 8 8 8 9 9 9 8 9 11 13 12 12 14 14 14 15 15 17 18 18 18 21 21 18 16 18 18 18 18 18 17 16 17 19 20 19 17 17 16 15 11 7 6 9 10 9 7 7 8 7 7 6 5 4 5 7 10 13 14 15 15 14 12 12 12 11 10 9 8 7 6 6 6 6
15 15 14 14 14 13 12 11 11 11 9 8 8 9 9 9 9 10 11 12 11 10 13 16 15 13 14 15 16 18 18 20 23 22 18 16 18 19 18 18 18 17 16 17 19 20 18 17 17 17 18 17 13 11 11 12 12 11 10 9 8 6 4 3 4 8 13 15 15 15 14 13 12 11 9 8 8 7 5 4 5 6 7 6 7
14 14 13 14 14 13 13 12 11 10 9 8 9 9 9 9 10 11 12 13 13 13 15 15 13 13 14 14 15 16 18 21 24 23 20 19 20 20 19 19 18 16 16 17 18 18 17 17 18 18 18 18 16 15 15 14 14 14 15 15 15 14 13 13 15 17 17 15 13 14 15 15 14 12 10 9 8 8 6 4 5 6 7 10 12
12 13 13 14 14 13 12 12 12 11 9 9 9 9 9 10 11 11 11 13 14 14 13 12 11 12 13 13 14 14 16 19 24 24 23 23 24 23 22 22 20 18 16 15 15 16 18 21 23 22 21 20 20 20 20 20 20 20 19 21 23 23 22 21 20 19 17 15 14 14 15 16 17 16 15 14 14 14 12 9 9 10 11 14 18
12 12 13 13 14 13 12 12 12 12 11 11 12 11 11 11 12 12 12 11 11 12 11 9 9 10 11 12 12 13 14 18 22 25 26 26 26 26 25 25 24 22 20 17 14 11 12 18 23 24 24 23 23 24 25 26 27 26 25 26 26 25 24 24 22 20 18 16 14 13 12 14 16 17 17 17 18 17 17 15 15 15 15 17 20
11 12 12 11 12 12 12 13 14 13 12 13 14 14 14 15 16 16 14 12 11 10 9 8 8 9 10 11 11 11 13 18 22 24 26 27 27 27 28 28 28 26 23 20 16 10 6 7 11 15 17 18 19 20 21 22 23 22 22 22 21 20 20 20 19 17 15 13 12 11 10 11 13 13 15 17 18 18 20 22 22 19 18 19 19
12 12 11 11 11 10 9 11 14 15 14 14 15 15 14 15 17 17 15 14 12 11 10 9 8 8 8 10 11 11 13 18 21 22 24 26 26 27 28 29 29 28 23 18 16 15 12 9 9 10 11 11 11 13 14 15 17 18 18 17 17 15 14 14 14 13 12 10 9 8 7 7 8 9 11 15 17 18 20 23 23 22 20 19 17
13 12 11 11 11 10 9 11 13 13 13 15 15 15 14 14 15 16 15 13 13 12 12 12 11 9 8 8 11 13 15 18 20 20 21 23 24 25 27 28 28 27 23 18 18 20 20 19 19 19 18 16 16 17 17 18 18 19 19 19 19 18 16 14 13 13 13 13 13 12 9 7 5 5 7 9 12 16 19 20 21 21 20 18 15
13 12 11 12 12 12 12 12 13 14 15 15 15 15 15 14 14 14 13 13 12 12 11 11 11 12 10 10 12 14 16 17 17 18 20 22 22 23 25 27 27 27 25 23 22 22 21 21 21 22 21 21 21 20 20 20 20 20 19 20 21 21 20 20 18 16 14 13 15 17 17 16 15 14 10 7 7 10 13 15 17 18 18 17 15
12 11 11 12 14 15 15 15 15 15 15 14 13 13 14 13 12 11 11 11 11 11 11 11 10 11 11 12 13 15 16 16 16 18 20 21 21 21 22 24 25 26 26 26 24 23 21 20 19 20 20 20 21 21 21 20 20 20 20 19 20 21 21 21 21 20 18 16 15 15 16 17 19 20 19 17 15 12 11 12 13 14 16 16 15
13 13 12 12 13 15 17 16 14 14 14 14 14 14 13 12 12 10 9 9 9 10 10 10 10 9 10 11 12 13 15 15 15 17 19 20 21 21 21 21 23 24 25 26 24 22 22 21 21 20 20 20 20 21 22 22 21 20 20 20 20 21 21 21 20 20 20 20 20 18 17 15 15 16 17 18 19 18 15 13 12 12 14 14 13
13 14 14 12 11 13 15 15 13 13 15 16 15 13 11 10 11 11 9 7 6 5 7 9 10 9 9 10 11 13 14 16 16 18 20 21 21 21 21 21 22 23 24 25 23 22 21 21 21 21 21 20 20 20 20 21 21 21 20 20 21 22 21 21 21 21 20 20 21 21 21 19 18 17 15 15 15 16 17 16 14 12 12 12 11
13 13 13 12 11 12 14 15 13 12 11 10 8 6 5 5 6 7 7 5 5 5 4 5 9 10 9 10 12 14 16 17 18 19 21 21 21 21 21 21 21 22 23 23 22 21 21 21 21 22 21 21 20 20 19 19 19 20 19 19 19 20 22 21 20 20 20 21 20 21 21 20 19 18 18 17 15 14 15 15 15 13 11 11 11
14 13 12 11 12 12 12 11 10 9 7 7 6 6 6 6 6 5 4 4 4 4 3 2 4 9 9 9 11 13 14 16 18 19 20 20 19 19 20 19 18 19 21 21 20 20 20 21 21 22 22 22 21 20 20 20 19 18 19 19 19 19 21 22 21 20 20 20 20 19 19 20 19 18 17 17 17 16 15 14 14 15 13 11 10
14 13 12 12 11 11 11 11 11 10 8 6 6 6 6 6 6 6 5 4 5 5 4 2 2 5 6 7 8 8 9 12 15 15 16 17 18 18 18 17 17 17 18 19 19 19 19 20 20 20 21 22 22 21 20 21 21 20 18 18 19 19 20 20 20 20 19 19 20 20 18 18 19 19 17 15 15 16 17 16 15 15 15 13 10
14 14 13 12 10 12 13 12 12 11 8 6 6 6 6 6 6 6 6 5 4 5 5 4 4 4 5 5 6 6 5 7 11 13 13 15 16 16 16 16 16 16 17 17 18 18 18 18 19 19 19 20 21 21 20 19 20 21 20 18 18 18 19 19 19 18 18 18 18 19 19 18 17 17 18 18 17 16 16 16 16 16 16 16 16
14 13 12 11 11 12 12 11 11 10 8 7 7 6 6 6 6 6 6 5 4 5 5 5 5 5 5 5 7 8 7 7 9 11 11 12 14 14 14 15 15 15 15 16 16 16 16 17 17 18 19 18 19 20 21 19 18 19 20 19 18 17 18 19 19 18 17 17 17 17 18 18 17 16 16 16 17 18 17 15 16 17 16 17 20
14 13 12 13 13 12 11 11 11 11 9 8 7 6 5 5 6 6 6 6 5 5 6 5 4 4 4 5 6 7 8 7 8 8 9 11 12 12 12 13 14 14 14 14 14 15 15 15 15 16 17 18 17 18 19 19 18 17 18 19 19 18 18 19 21 20 18 17 17 16 17 17 17 18 18 15 15 17 19 18 16 16 16 17 19
14 16 16 15 13 12 13 13 13 11 10 8 7 6 5 4 5 6 7 6 5 6 7 6 4 4 4 4 5 5 6 6 7 8 8 9 10 10 10 11 12 12 12 13 13 13 13 13 14 14 14 15 16 16 17 18 18 17 17 17 18 18 17 17 20 21 20 18 16 16 17 18 17 18 19 18 15 15 17 18 18 17 15 15 17
15 16 16 14 12 13 15 14 11 11 12 9 6 6 5 4 4 5 5 5 5 6 7 6 5 4 5 4 3 3 4 5 6 7 7 8 8 8 9 10 10 11 11 11 12 12 12 11 12 12 13 14 15 15 16 16 16 16 16 16 16 17 16 16 17 20 21 20 18 16 16 17 18 17 18 17 16 15 15 15 16 18 17 14 14
16 16 15 13 13 13 12 10 9 10 10 8 6 6 5 5 5 5 4 4 5 5 6 5 4 2 3 3 2 2 2 4 5 5 6 7 7 8 8 9 9 9 9 10 10 11 11 11 11 11 12 13 13 13 14 14 14 15 15 15 15 16 16 16 17 19 20 21 21 18 16 15 16 17 18 17 15 15 14 14 14 16 16 15 15
16 15 14 13 13 11 11 11 10 9 8 7 8 6 4 5 6 5 5 5 4 3 4 5 5 5 3 1 1 1 2 4 4 5 5 6 7 7 7 8 8 8 8 9 9 10 10 10 11 11 11 11 12 12 13 13 13 13 14 14 15 16 17 16 15 16 18 19 19 19 17 15 15 16 18 17 16 16 15 14 14 14 14 15 14
16 14 14 13 12 11 12 11 10 10 10 8 8 7 5 5 6 6 6 7 6 5 5 4 4 5 5 3 1 1 2 3 3 4 5 5 6 7 7 7 7 8 8 8 9 10 10 10 10 10 10 10 11 11 11 12 12 12 13 14 14 14 16 16 13 13 15 18 18 18 16 14 14 15 16 16 16 16 16 15 15 14 13 13 13
15 14 14 13 11 11 11 11 11 12 10 8 8 8 7 7 7 8 7 5 4 4 4 3 3 4 3 2 2 2 2 2 3 4 4 4 5 6 6 6 7 7 7 8 8 9 9 9 9 8 8 9 10 10 10 11 10 10 12 14 13 12 13 13 11 11 13 15 16 16 16 15 14 14 15 15 14 14 15 16 16 17 16 14 12
15 14 14 13 12 12 12 11 11 10 10 10 10 10 9 9 8 7 5 3 2 3 4 4 4 4 4 3 3 3 2 1 2 3 3 3 4 4 5 6 6 6 6 7 7 7 7 7 7 8 8 8 9 9 9 9 8 8 11 13 12 12 12 11 10 10 12 13 14 15 15 14 13 14 14 15 15 14 14 15 15 16 18 16 14
14 14 13 12 12 12 11 9 9 9 10 11 11 10 10 10 9 7 5 5 5 6 6 5 5 5 4 4 4 3 2 1 1 1 2 3 3 3 3 4 5 5 5 5 5 6 6 6 7 7 7 8 9 9 8 6 6 8 11 12 11 11 12 11 9 9 9 11 13 14 13 12 12 12 13 14 15 15 14 14 14 16 17 16 15
15 13 13 13 14 13 12 10 11 12 12 11 12 12 11 10 10 9 8 8 8 8 8 7 6 5 5 4 4 3 3 2 2 2 2 2 2 2 3 3 3 3 4 4 4 4 5 6 6 7 7 7 8 8 6 7 9 10 10 10 10 10 10 9 8 8 8 9 11 13 13 12 12 11 11 12 14 15 14 14 14 15 16 15 14
15 14 14 14 14 14 14 13 13 13 13 12 12 12 11 11 11 11 10 9 8 8 7 6 5 5 5 5 4 3 3 3 2 1 2 2 3 3 2 1 1 1 2 2 3 3 4 5 6 7 7 7 7 6 5 8 10 10 9 9 9 9 9 8 6 6 6 8 10 12 13 12 12 11 11 12 12 13 14 14 14 14 14 14 14
16 17 17 15 13 13 13 13 13 13 13 13 12 12 12 12 12 11 10 8 7 7 7 6 5 5 6 5 4 3 3 3 2 2 2 3 4 3 2 2 1 0 0 0 1 2 3 3 5 6 6 5 5 6 6 8 9 8 8 8 8 7 7 7 6 4 5 7 10 11 12 11 11 11 11 11 12 13 14 14 15 15 14 13 13
Wind_Direction
197 205 212 222 229 237 240 231 234 246 229 216 226 241 251 260 263 270 271 266 277 298 276 266 264 252 250 255 255 259 264 262 261 270 281 279 260 252 247 241 245 247 247 250 253 255 260 263 264 264 257 244 258 267 268 267 263 259 257 253 248 245 238 229 230 257 269 267 263 263 266 266 266 270 273 273 277 283 283 280 272 259 256 264 268
197 204 211 219 227 238 251 257 266 272 237 210 232 243 249 265 279 293 293 279 280 304 309 276 266 262 265 269 269 272 276 272 275 288 289 277 273 276 270 260 262 263 263 266 268 268 264 261 264 265 261 256 261 261 258 257 254 253 251 246 243 246 249 247 242 245 261 262 260 260 263 267 266 266 266 264 267 276 283 285 277 262 257 261 265
194 201 208 213 223 230 239 249 257 265 256 226 236 248 257 273 286 295 297 285 277 289 306 332 338 305 297 295 288 289 295 293 294 304 305 293 289 294 292 276 261 264 272 274 272 272 265 260 263 265 262 257 254 254 253 250 248 246 244 243 241 245 252 254 248 239 242 252 256 259 264 267 266 265 263 261 264 272 278 282 278 265 258 259 263
191 198 205 212 223 229 231 235 241 254 259 241 243 252 262 290 319 324 327 341 330 303 309 334 339 326 320 318 314 312 313 313 313 319 318 310 307 307 306 299 280 274 281 279 275 276 273 267 265 263 263 264 262 260 257 253 251 248 249 251 249 247 249 250 246 241 236 242 250 257 265 267 265 264 261 259 266 274 277 277 276 272 266 266 268
189 195 204 212 219 219 217 217 225 244 254 247 253 240 159 19 15 20 25 28 26 3 342 341 332 327 328 330 332 329 322 321 324 325 317 309 307 307 309 311 302 291 285 282 282 284 281 277 274 272 273 276 274 269 264 260 258 256 256 257 255 255 254 250 245 237 230 236 252 261 266 266 265 265 261 264 275 279 276 272 272 272 269 267 266
190 193 199 204 207 205 198 188 184 167 92 31 63 82 83 62 35 28 26 21 14 11 2 350 339 342 349 351 347 341 339 340 336 329 321 317 317 317 316 319 320 320 314 304 302 302 297 292 287 285 285 281 274 272 272 272 269 266 263 260 259 262 264 264 262 250 236 238 250 259 262 263 267 269 268 272 275 273 271 269 268 269 270 269 267
181 182 181 177 180 180 159 131 108 97 85 67 70 74 67 58 47 35 32 22 10 2 350 348 357 3 4 359 348 343 346 349 345 344 347 342 340 339 335 333 330 329 328 321 316 313 307 303 298 292 289 283 274 273 273 269 265 266 266 267 270 273 274 273 272 273 274 266 259 261 265 266 268 270 271 272 271 266 265 268 270 270 268 267 266
162 161 153 141 129 121 114 104 94 91 88 76 70 71 66 59 46 35 29 18 19 22 16 17 23 18 9 355 346 348 356 3 357 355 356 350 346 345 338 333 327 321 319 315 310 308 304 301 299 294 290 288 285 288 291 284 275 273 273 272 272 271 269 268 265 265 269 271 272 276 280 280 279 278 275 271 268 266 263 260 263 267 266 264 267
147 142 132 118 106 102 99 95 95 94 89 82 74 69 64 58 50 41 33 23 23 21 17 20 20 12 5 354 354 12 31 28 17 6 359 353 348 344 337 332 327 319 314 310 304 303 302 300 299 296 294 295 296 299 304 305 299 291 285 277 266 260 262 266 266 260 253 255 263 267 273 278 273 267 266 263 260 265 267 264 262 264 269 273 274
133 128 120 111 106 105 101 97 95 91 86 82 79 73 61 52 49 44 37 32 27 17 12 18 16 7 3 360 12 44 44 26 16 7 2 359 352 347 342 334 328 321 314 309 305 301 299 299 298 299 300 301 302 302 302 303 305 304 300 293 285 280 277 271 266 261 255 252 250 244 244 252 252 253 262 268 267 269 276 287 292 288 287 288 281
122 118 115 113 112 107 102 97 93 92 92 83 73 71 61 50 50 47 41 36 31 26 25 22 15 8 3 5 26 54 38 19 9 1 359 358 354 351 345 334 325 320 313 308 304 301 300 299 297 298 302 305 307 308 307 306 308 306 301 297 293 292 288 278 272 271 268 263 261 257 252 253 257 265 279 296 311 313 300 297 305 303 294 284 283
117 116 116 116 111 107 107 104 97 93 85 67 60 64 63 56 53 47 39 35 30 28 26 17 13 12 9 13 33 46 24 11 4 359 358 356 354 352 347 335 327 323 318 313 310 307 305 303 302 302 305 307 310 313 313 312 312 307 303 300 292 286 287 285 281 280 276 273 273 271 269 271 276 282 288 292 298 297 291 287 290 290 284 273 267
116 114 115 114 112 112 110 100 90 83 76 69 65 63 61 56 51 42 33 31 26 20 17 16 19 24 20 18 33 37 18 9 3 360 357 353 351 351 347 339 331 326 324 321 317 315 313 312 310 309 309 312 316 318 317 316 317 313 310 309 303 297 296 292 286 281 278 275 275 271 269 276 284 288 288 280 268 264 272 281 278 271 271 269 267
113 111 109 108 106 103 95 88 84 79 76 75 70 63 58 52 46 39 29 25 24 22 21 21 23 29 26 21 30 30 13 6 0 357 355 350 348 350 348 339 332 327 325 323 320 318 318 317 313 312 316 322 324 324 326 329 330 327 323 320 314 310 311 310 305 298 289 277 270 269 270 274 279 284 283 270 256 258 263 263 259 263 271 273 276
109 106 103 100 97 92 90 89 85 80 75 71 66 61 56 49 42 35 29 29 29 25 25 29 31 33 29 22 23 22 9 1 357 356 354 350 349 350 347 337 331 327 324 323 322 320 318 317 315 317 323 328 329 332 341 345 341 335 331 327 323 320 317 317 315 309 301 291 279 276 277 275 277 280 278 268 263 270 272 267 263 271 281 284 285
106 103 98 96 95 92 90 89 82 77 74 69 64 56 49 45 39 33 32 35 31 25 29 38 39 36 31 21 16 14 4 356 354 355 354 351 350 350 345 338 334 330 328 327 325 322 320 318 318 321 325 327 331 338 340 342 342 339 334 329 330 331 326 320 319 309 297 292 289 284 279 277 283 287 284 279 278 280 282 282 281 281 282 283 284
105 102 98 95 94 91 90 89 84 80 74 67 62 55 49 46 39 29 31 42 38 30 31 35 33 30 27 19 12 10 1 352 353 356 354 352 353 353 347 343 338 334 332 328 324 322 319 317 318 321 325 330 336 340 340 341 344 344 340 331 328 334 341 345 345 332 305 289 282 280 285 293 296 295 291 287 285 285 285 285 288 292 285 272 278
105 102 100 98 95 93 92 90 85 80 74 67 62 58 53 50 44 31 33 45 46 33 27 28 26 26 24 16 9 7 3 357 355 356 354 354 358 358 350 343 341 336 331 326 324 322 319 317 320 322 326 332 335 338 343 348 349 350 349 338 323 333 1 11 8 7 5 343 315 314 342 328 309 299 304 310 308 301 286 279 285 297 295 280 289
105 103 102 100 97 95 94 91 87 82 75 70 67 65 60 54 52 44 38 43 44 33 28 29 28 26 22 15 10 8 7 4 357 355 355 358 3 2 351 340 337 334 329 326 326 325 322 320 319 317 316 320 325 332 341 346 349 348 341 331 322 337 3 3 0 6 9 3 359 1 1 354 345 340 340 338 330 312 281 275 281 284 288 293 299
104 104 103 101 99 96 92 90 89 85 82 80 72 68 64 56 54 52 46 45 46 42 39 36 32 28 21 18 18 13 12 10 1 356 359 6 10 7 358 348 341 336 333 330 328 328 328 327 325 321 317 315 320 331 341 348 356 351 337 332 338 344 339 336 346 359 1 358 3 5 0 359 3 2 359 357 351 336 312 296 297 296 296 295 295
108 107 105 101 99 97 94 93 93 90 89 86 77 71 68 61 57 56 50 49 54 52 47 42 39 35 28 25 24 20 19 17 7 3 9 17 18 13 7 1 354 346 342 338 334 336 339 340 340 335 327 320 321 333 344 357 14 9 349 341 336 325 315 312 325 346 353 351 359 8 6 3 6 12 18 21 20 17 11 345 328 332 329 312 302
111 109 106 103 102 101 100 98 96 92 91 90 86 78 71 67 66 63 56 58 57 51 47 47 44 38 33 31 28 24 23 17 9 12 24 29 23 18 13 9 5 356 348 345 348 353 354 354 356 353 342 332 328 337 348 2 17 5 335 322 311 304 304 308 318 333 342 348 5 23 29 29 32 35 33 31 30 31 31 22 9 9 11 0 348
113 110 108 107 107 107 105 103 100 98 95 93 88 78 71 68 61 54 60 68 64 54 51 51 44 36 32 31 29 26 24 19 16 24 36 35 26 26 24 20 16 8 359 355 359 4 6 7 14 20 24 31 35 20 11 13 13 359 334 322 315 311 306 298 299 323 357 20 35 41 36 33 35 32 25 19 14 13 21 28 27 29 29 23 23
112 109 111 112 112 112 110 107 103 100 96 91 84 77 74 71 57 47 52 61 65 68 67 55 41 33 30 28 27 26 24 22 24 33 42 36 29 29 26 22 21 17 12 10 9 10 14 19 26 35 43 50 50 44 38 34 31 30 25 16 12 11 11 14 32 45 47 46 47 47 39 32 31 25 16 8 356 348 354 18 31 34 46 60 66
111 113 117 116 112 111 110 105 99 96 94 91 88 84 81 77 68 58 49 40 38 52 63 57 44 38 32 25 25 25 23 23 26 32 37 32 27 26 21 17 18 15 14 17 19 23 31 40 45 49 54 57 58 57 54 50 49 50 51 52 53 55 59 62 61 60 58 53 51 52 49 46 45 41 35 27 17 11 16 42 55 56 67 75 72
118 120 118 115 115 114 113 108 101 98 97 91 86 83 78 73 71 68 59 47 39 41 49 51 47 44 35 27 26 26 22 21 23 26 27 24 22 22 19 16 14 10 7 12 20 31 47 58 62 64 65 65 66 68 68 67 66 64 64 66 67 67 69 70 69 68 68 67 68 67 62 55 53 52 48 42 38 36 38 47 60 68 77 78 72
125 124 123 127 129 125 119 114 109 103 96 88 82 78 74 71 67 61 55 52 48 44 44 43 40 41 34 24 23 26 24 21 21 21 21 19 17 17 15 12 10 8 4 1 2 17 50 67 70 71 73 75 75 75 75 73 71 70 70 70 71 72 74 75 76 77 77 76 75 75 69 60 56 57 56 53 53 53 54 59 66 70 74 74 68
134 132 131 133 132 131 131 130 123 108 90 83 80 77 77 76 74 70 63 59 56 50 42 34 27 30 30 19 14 18 18 17 18 18 17 16 16 16 16 13 11 10 6 2 1 4 23 58 63 65 69 72 73 73 72 69 66 66 66 67 67 68 71 73 75 77 77 77 76 72 63 55 57 61 62 63 66 68 68 71 73 70 68 68 65
135 131 130 130 131 131 123 113 108 101 93 90 87 85 86 84 81 79 76 72 69 64 57 51 43 38 32 25 23 21 14 14 19 21 20 19 18 18 19 17 15 14 14 17 25 32 33 32 34 43 49 50 51 54 56 58 59 58 55 54 55 56 57 62 67 68 66 64 63 64 65 57 56 65 68 68 73 78 77 78 77 73 69 67 66
135 132 137 139 132 118 100 92 95 101 105 104 99 96 96 93 87 84 81 76 73 70 64 59 57 57 51 38 34 32 27 23 24 27 30 29 26 25 26 25 23 21 23 32 43 48 48 45 41 41 41 39 41 45 48 50 53 55 52 49 48 48 47 48 53 60 64 60 48 44 51 51 48 71 86 85 87 88 83 79 77 75 72 70 69
137 139 144 142 133 124 119 116 113 113 115 116 115 111 106 100 92 86 82 76 70 66 62 55 51 53 52 43 37 37 36 32 29 31 36 36 33 33 33 32 30 29 31 36 41 43 45 47 46 44 42 39 38 40 45 49 50 50 49 47 44 42 40 41 43 47 53 58 55 51 51 49 43 45 53 71 97 104 98 89 84 79 74 70 68
141 143 148 149 143 135 131 128 126 125 127 129 131 128 122 116 111 101 91 83 72 63 58 52 44 42 42 39 37 36 35 33 32 34 38 37 35 36 37 36 34 34 35 38 38 35 34 37 41 44 45 44 41 37 38 42 46 47 45 43 40 38 37 38 42 42 39 40 45 49 54 58 55 52 50 48 50 62 81 91 93 91 84 75 69
147 147 153 158 152 142 138 139 139 140 145 151 155 155 151 145 140 133 119 103 86 70 59 52 46 42 38 37 39 37 34 34 36 38 40 39 36 37 39 38 37 37 39 39 37 33 31 30 32 35 40 43 45 44 40 38 39 42 44 40 35 34 36 39 42 41 38 36 34 34 40 51 58 62 66 63 55 50 53 62 73 86 90 85 79
149 150 157 164 159 149 147 148 153 165 172 173 172 171 168 159 155 155 153 143 125 96 66 52 49 48 44 42 44 42 38 39 41 42 43 42 39 38 39 40 38 38 40 40 37 33 31 29 28 29 33 37 41 44 46 45 41 40 42 43 38 34 33 36 39 40 38 36 35 34 34 38 42 46 53 64 70 65 56 48 48 61 79 87 86
146 150 159 167 166 162 160 161 167 177 175 162 153 150 140 128 135 145 150 155 160 153 120 67 50 50 54 52 47 43 42 43 44 44 43 41 38 37 37 37 35 34 36 38 38 35 33 30 27 25 26 30 35 38 40 43 46 44 41 41 42 39 33 30 35 40 39 34 35 36 36 35 39 41 39 39 48 61 65 59 49 46 59 77 80
145 151 163 174 175 169 165 161 156 147 133 127 135 147 147 137 129 125 117 107 103 106 124 131 62 49 48 43 36 34 38 41 40 38 38 37 36 36 36 34 33 33 32 33 36 36 35 33 30 27 24 23 28 34 34 32 35 42 43 38 37 39 36 31 31 38 39 33 31 33 35 34 34 37 40 38 35 37 44 53 54 48 45 55 70
149 155 170 183 178 163 155 154 149 141 141 150 154 149 143 134 127 120 111 104 99 90 90 126 102 53 33 23 23 23 29 36 36 34 34 35 35 37 37 34 34 35 32 31 33 36 36 34 31 30 27 23 23 28 33 31 26 28 35 38 34 33 34 34 34 36 38 36 31 28 30 34 33 30 31 35 37 35 32 32 37 42 38 35 41
153 162 177 184 171 155 153 154 149 143 147 153 147 138 133 121 115 114 107 103 109 103 87 76 68 45 16 13 23 17 13 33 37 33 33 35 35 35 36 35 35 37 34 30 32 35 37 36 33 30 29 28 24 22 26 31 30 24 25 32 35 32 29 29 31 34 35 35 35 31 26 28 33 34 31 28 27 29 32 30 26 26 27 27 22
157 168 174 165 155 158 161 155 147 149 158 161 149 143 141 134 130 132 128 119 113 107 95 79 61 40 21 26 35 29 29 45 45 36 35 37 35 35 36 33 33 36 35 31 31 33 34 34 33 31 29 28 28 24 21 25 31 30 24 24 28 33 30 22 18 25 31 30 31 34 30 26 26 29 33 36 31 22 20 27 29 27 27 27 21
158 162 158 153 160 172 172 163 163 168 168 156 144 140 140 142 140 135 127 122 115 106 98 86 67 49 49 60 53 34 29 41 47 44 44 43 38 37 38 34 33 35 33 29 28 31 32 31 31 32 30 28 29 28 24 23 27 31 29 24 21 27 31 23 14 16 23 26 27 29 27 26 26 20 18 29 40 30 19 17 23 30 35 34 26
158 159 163 169 175 175 173 177 180 171 153 143 144 143 136 131 132 133 134 135 133 121 107 92 74 62 72 85 74 41 27 38 47 48 48 48 44 42 41 38 37 37 35 30 25 26 30 31 30 31 30 28 28 29 28 26 26 28 30 28 23 22 24 23 16 11 12 19 27 29 24 22 25 22 15 18 31 38 29 19 15 18 27 33 30
160 165 175 184 184 181 184 190 181 150 133 133 144 147 146 145 137 135 140 143 134 123 116 109 96 85 89 95 87 48 34 48 57 54 48 47 48 49 47 42 38 37 38 34 25 22 26 31 31 30 29 28 28 29 28 28 29 29 28 29 27 24 20 17 15 12 8 8 15 26 28 23 21 20 17 16 21 29 32 27 19 14 14 20 28
166 176 181 186 192 193 187 178 162 144 137 145 156 155 157 161 151 139 137 130 118 120 134 148 158 131 95 83 61 31 42 54 60 61 56 50 48 50 50 44 36 35 39 36 28 25 27 28 29 30 29 27 28 29 30 30 30 31 31 29 27 25 22 18 16 14 8 2 4 13 23 27 24 18 13 13 16 19 22 27 23 15 12 13 18
174 179 178 185 196 189 163 155 166 165 152 149 155 156 160 161 153 145 136 128 130 157 176 182 204 220 220 244 305 7 80 75 61 54 57 58 55 52 50 44 36 36 39 35 29 30 31 29 27 27 27 28 28 29 31 32 31 30 31 31 27 25 24 22 22 17 9 2 1 5 11 21 28 21 12 11 16 14 13 18 18 12 13 14 11
176 172 173 185 190 173 158 164 169 154 140 146 158 166 177 171 158 159 162 162 178 205 204 191 208 215 208 208 215 134 111 105 85 64 54 55 55 52 50 43 36 37 38 32 27 28 28 26 26 25 23 26 30 29 31 34 30 22 20 23 26 26 21 18 22 24 16 10 8 6 4 12 25 23 13 11 16 12 7 10 11 5 5 11 9
175 172 180 185 175 165 171 174 156 142 151 172 176 175 184 182 173 177 185 185 193 202 193 192 210 206 186 175 164 141 127 122 101 80 62 57 60 57 52 42 33 32 33 28 25 25 24 22 24 25 23 26 29 29 30 33 27 13 6 10 18 23 22 19 21 23 19 15 13 10 5 8 18 19 10 6 11 11 6 6 8 1 354 358 8
173 180 187 180 166 169 177 168 146 148 172 185 179 180 188 184 178 186 196 192 199 213 211 209 206 194 183 187 187 174 159 131 106 97 95 92 79 67 56 44 32 26 27 25 21 21 21 21 23 24 24 26 28 28 30 33 25 4 356 2 9 15 18 21 22 19 16 17 16 14 10 9 13 15 8 2 4 8 5 4 6 359 349 350 4
176 185 186 175 168 172 174 165 157 170 184 186 184 189 189 181 179 190 192 182 196 224 237 231 212 198 193 196 190 175 157 135 112 129 136 117 92 77 69 53 33 19 18 19 17 18 19 21 24 25 23 23 27 27 23 14 2 352 352 358 6 9 10 15 20 19 18 19 18 17 15 11 8 11 9 3 2 6 5 2 2 355 346 347 0
183 186 183 181 180 173 168 172 181 185 187 189 190 190 187 182 184 190 189 187 200 224 237 228 209 195 195 201 196 183 179 187 193 181 156 134 118 109 93 68 37 17 14 15 17 22 22 19 21 25 23 19 24 27 8 343 343 350 354 357 2 6 6 10 15 16 16 18 20 20 18 11 4 6 8 7 5 4 360 357 356 350 345 349 360
187 185 185 191 186 170 165 178 189 188 187 190 190 188 188 187 188 193 198 202 208 221 232 227 207 194 197 205 207 204 204 203 203 205 190 167 154 148 130 94 57 27 17 17 17 25 31 26 22 22 19 15 20 22 352 335 344 355 357 354 359 6 7 7 13 20 21 22 23 20 14 6 2 3 5 7 8 1 354 351 351 346 344 352 360
189 190 190 189 179 164 168 186 196 192 187 188 190 191 191 192 195 200 203 206 211 216 218 215 211 210 211 205 197 204 216 210 203 239 242 190 157 152 162 162 159 201 306 45 60 36 34 31 24 21 18 8 359 353 341 339 348 358 0 358 1 4 3 5 17 35 34 27 25 20 10 3 2 2 0 2 4 359 353 351 350 345 344 352 358
Height
756 758 759 759 760 760 760 761 762 764 764 765 767 768 768 767 766 766 766 766 766 766 766 767 769 769 769 770 770 770 771 771 772 772 773 772 770 769 769 770 771 771 770 769 768 768 768 768 767 766 766 770 775 776 775 774 773 772 771 770 770 770 771 772 772 768 765 765 766 767 768 767 766 766 766 765 765 766 765 765 764 763 763 764 764
754 756 757 758 759 759 760 760 760 762 763 765 766 766 766 765 765 764 764 765 765 765 766 767 769 769 769 769 769 770 770 770 770 771 771 770 769 768 768 770 772 771 769 769 767 766 766 766 765 765 765 766 769 770 770 770 769 768 766 766 766 766 765 766 766 764 762 761 763 764 764 764 762 762 763 762 762 763 763 763 762 761 761 761 761
752 755 756 757 758 758 759 760 760 761 762 764 764 764 765 765 764 763 763 764 763 763 765 767 768 768 768 769 769 770 770 769 769 770 770 769 768 768 767 767 769 769 768 768 767 766 766 765 764 764 764 763 764 765 765 765 765 764 763 762 762 761 761 761 761 761 760 759 760 759 759 759 758 758 759 760 760 760 760 760 760 759 758 759 759
751 753 754 756 757 757 758 759 759 760 761 762 764 764 764 764 763 763 763 764 762 763 765 766 767 768 768 769 769 769 768 768 768 769 769 769 768 767 766 766 766 766 767 767 766 765 765 764 763 762 762 762 761 762 761 760 760 759 759 758 758 758 758 758 758 758 757 756 755 755 755 755 754 754 756 757 757 757 757 757 757 757 756 756 757
750 751 753 755 755 756 757 758 759 760 761 762 763 764 764 764 764 764 765 765 765 765 766 767 768 769 769 769 768 768 768 768 768 769 769 769 768 766 765 765 764 765 765 765 765 763 762 762 761 760 760 759 759 759 758 758 757 756 755 755 755 755 755 755 754 754 753 753 751 751 751 751 752 753 753 754 754 755 755 755 755 754 754 754 754
749 751 752 753 754 755 756 757 758 759 761 762 763 763 764 765 766 766 766 767 767 767 767 768 769 769 769 768 768 768 768 768 769 769 769 768 767 766 764 764 764 764 764 763 762 761 760 760 759 758 758 757 757 756 756 755 754 753 752 752 752 752 752 752 752 751 751 752 751 750 749 750 752 753 752 752 753 752 752 752 751 752 752 752 752
749 750 752 752 754 755 756 757 758 759 761 762 763 764 765 766 766 767 767 768 769 768 768 769 769 769 768 768 768 769 769 768 768 768 768 767 765 765 764 763 763 763 762 762 761 760 759 758 758 757 756 755 755 754 752 752 750 749 750 750 751 751 750 751 752 750 749 751 750 750 750 751 751 751 750 750 750 750 750 749 749 749 750 750 750
748 750 751 752 754 755 756 757 758 760 761 762 764 765 765 766 767 767 768 769 770 770 769 769 769 769 769 769 770 770 769 768 768 767 767 766 765 764 764 763 762 762 761 760 760 759 758 757 756 755 754 753 753 752 751 750 748 747 747 748 749 750 750 751 751 748 748 749 748 747 749 748 747 747 747 747 747 747 747 747 747 747 748 747 747
748 750 751 752 754 755 756 758 759 761 762 763 765 766 766 767 768 768 769 770 770 770 770 770 770 770 770 771 771 770 768 768 768 768 767 766 765 764 764 763 762 761 760 759 758 757 756 755 754 753 752 751 750 749 749 748 747 746 746 746 747 748 748 748 747 745 746 747 746 745 747 746 746 747 746 745 745 746 746 746 745 745 745 745 744
748 750 752 753 755 756 758 759 761 762 763 765 766 767 767 768 768 769 770 770 770 770 770 770 770 771 771 771 770 769 768 769 769 768 767 766 765 764 763 762 761 760 759 757 757 755 755 754 752 751 750 749 748 747 746 746 745 745 744 744 744 745 744 744 743 743 744 744 744 745 745 746 747 747 745 743 744 745 744 744 744 744 744 743 742
749 751 753 754 756 758 759 761 762 763 765 766 767 767 768 769 769 770 771 771 771 771 771 771 771 771 771 771 770 769 769 769 768 768 767 766 765 764 763 762 760 759 758 756 755 754 753 752 751 749 748 747 746 745 744 744 743 743 742 742 741 742 742 742 742 741 741 741 741 742 742 742 743 744 742 742 743 744 743 743 743 743 743 743 742
751 753 754 756 758 759 761 763 764 765 766 767 768 768 770 770 771 771 771 771 772 771 771 771 771 771 771 770 770 769 769 769 768 767 767 765 765 763 762 761 759 758 757 755 754 753 751 750 749 748 747 745 745 744 743 742 741 741 740 739 739 739 739 739 739 739 739 740 740 740 740 740 740 741 741 741 741 743 743 742 742 742 743 742 741
753 754 756 758 760 761 763 764 765 767 768 769 770 770 771 771 771 772 772 772 772 772 772 772 771 771 771 771 770 770 770 769 768 767 766 765 764 763 761 760 759 757 756 755 754 752 751 749 748 746 745 744 743 743 742 741 740 739 739 737 737 737 737 737 737 737 737 738 738 738 738 739 739 739 739 739 740 741 741 740 740 741 741 740 740
755 756 758 760 761 763 764 765 767 769 769 770 771 771 772 772 772 773 773 772 773 772 772 772 772 772 772 772 772 770 770 770 768 767 766 764 763 762 761 760 758 757 756 754 753 752 750 749 747 745 744 743 742 741 740 739 738 738 737 736 736 735 736 736 736 735 735 735 735 735 735 737 737 737 737 738 739 739 739 738 739 739 739 739 738
756 758 760 761 763 764 766 767 769 770 770 771 771 772 773 773 773 774 773 773 773 773 773 773 773 773 773 773 773 772 771 770 768 767 766 764 763 761 760 759 757 756 755 754 753 751 749 748 746 744 743 742 741 740 739 738 738 737 736 736 735 735 735 735 734 734 734 734 733 734 734 735 735 735 735 736 737 738 738 738 737 737 737 737 737
757 759 760 762 764 765 767 768 769 770 771 772 772 773 774 774 774 775 774 775 774 774 774 774 774 774 774 774 774 773 772 770 769 768 766 764 762 761 759 758 757 755 754 753 751 750 748 747 745 744 743 741 740 739 738 738 737 736 736 735 735 734 734 734 733 733 734 733 732 733 734 734 734 733 733 734 735 736 736 736 737 737 737 737 736
757 759 760 762 764 765 767 768 770 771 772 773 773 774 775 775 776 776 775 775 775 775 775 775 775 775 775 775 774 774 773 771 770 768 767 765 763 761 760 758 757 755 754 752 750 748 747 745 744 743 741 740 739 738 738 737 736 735 735 735 734 734 734 733 732 732 733 732 732 732 733 733 733 732 732 732 733 735 736 736 736 736 736 736 735
757 759 761 762 764 766 767 769 770 772 773 774 775 776 776 777 777 776 776 776 776 776 776 776 776 776 775 775 775 774 773 772 771 769 767 765 763 761 760 759 757 755 753 751 749 747 745 744 742 741 740 739 739 738 737 737 736 735 735 735 734 734 734 733 733 732 732 732 732 732 731 732 732 732 731 732 733 734 735 735 735 735 734 735 735
758 760 762 763 765 766 768 769 771 772 774 775 776 777 777 777 777 777 777 777 777 777 777 777 777 777 776 776 775 775 774 773 772 770 768 766 764 762 761 759 757 755 753 750 748 745 743 742 741 740 739 738 738 737 736 736 735 735 735 735 734 734 734 734 734 733 732 732 732 731 731 731 732 731 731 731 732 732 733 732 733 733 733 734 734
761 763 764 765 766 768 769 770 772 773 775 776 777 778 778 778 778 778 778 778 778 778 778 778 778 777 777 776 776 775 774 773 772 770 768 766 764 762 761 759 757 755 752 750 748 745 743 741 740 739 738 737 736 736 736 736 735 735 735 734 734 734 734 734 734 733 733 732 731 731 730 731 731 731 731 730 730 731 731 731 731 732 732 733 732
762 764 766 767 768 769 770 772 773 774 776 777 778 779 779 779 779 779 779 779 778 779 778 778 778 778 778 777 776 776 775 774 772 770 768 767 765 762 761 759 757 755 752 750 748 745 743 741 739 738 736 735 735 735 735 735 735 734 734 734 734 734 734 734 734 733 733 732 731 731 732 731 731 731 731 730 730 731 730 730 730 730 731 732 731
763 765 767 768 770 771 772 773 774 775 777 778 779 780 780 780 780 779 779 779 779 779 779 778 779 779 778 778 777 777 776 775 773 771 769 767 764 762 760 759 757 756 753 751 749 746 744 741 739 737 735 734 734 735 735 735 735 734 734 734 734 733 733 734 733 733 733 733 732 733 733 733 732 732 732 732 731 731 730 730 730 730 731 731 732
765 766 768 770 771 772 773 774 775 776 778 779 780 781 780 780 780 779 779 779 779 780 779 779 780 780 779 779 779 778 777 776 774 772 769 767 764 762 761 760 758 757 755 752 750 747 745 742 740 738 736 734 735 735 735 735 735 734 734 733 733 733 732 733 733 733 734 733 733 734 734 734 734 734 734 733 732 732 731 731 731 731 732 732 732
768 768 770 771 772 773 774 775 776 777 778 780 781 781 781 781 781 780 780 779 780 780 780 781 781 781 781 781 781 780 779 777 775 773 770 768 765 763 762 761 759 758 756 754 752 749 746 744 742 740 738 736 736 736 736 736 735 734 734 733 733 732 732 733 734 734 734 735 735 736 736 736 736 735 734 734 733 732 732 731 732 732 732 732 732
772 771 772 772 773 774 775 775 777 778 780 781 782 782 782 782 781 781 781 780 781 781 781 782 783 783 783 782 782 782 781 778 776 774 772 770 767 765 764 762 761 759 757 755 753 751 749 746 743 742 740 739 738 738 737 737 736 735 735 734 734 733 734 734 734 735 736 737 738 738 738 738 737 736 735 734 733 732 731 731 732 732 732 732 732
774 774 774 773 774 775 776 777 779 780 781 782 782 782 783 782 782 783 783 782 783 783 783 784 784 784 784 784 784 783 782 780 778 775 773 771 768 766 764 763 761 760 758 757 755 753 751 749 746 744 743 742 741 740 739 739 738 737 737 736 735 735 735 736 736 737 738 739 739 740 740 739 738 737 736 735 733 732 731 731 732 732 732 732 732
776 775 774 774 775 776 777 778 780 781 783 783 783 783 783 783 783 784 784 785 785 785 786 786 786 785 785 785 785 784 782 781 778 776 774 771 769 767 765 763 761 759 757 756 755 754 753 751 749 747 746 745 744 743 742 742 741 740 739 739 739 738 738 739 739 739 740 740 740 740 740 739 738 738 737 735 734 733 733 732 732 733 733 733 733
776 775 775 775 775 777 778 779 780 782 783 784 784 784 785 785 785 785 786 786 787 787 788 788 787 787 786 786 785 784 783 781 779 777 775 773 770 768 765 763 761 759 757 756 755 754 753 752 751 750 749 748 747 745 745 744 743 743 742 742 742 741 741 741 741 741 741 741 741 741 741 740 739 739 738 736 735 735 734 733 734 735 735 734 734
775 775 775 775 777 778 778 779 780 782 784 785 785 786 786 787 787 787 788 788 789 789 789 789 788 788 788 787 787 785 784 782 780 778 777 774 772 770 767 765 763 760 759 757 755 754 753 752 752 751 750 749 748 747 747 746 745 745 745 744 744 743 743 743 742 742 742 742 742 742 741 740 740 740 739 738 737 737 737 736 736 736 736 736 737
775 775 775 776 778 778 779 780 781 783 785 786 787 788 788 789 789 789 789 790 790 790 790 790 789 789 788 788 787 786 785 783 781 780 777 776 774 772 769 768 765 763 761 759 757 756 755 754 754 753 752 752 751 750 750 749 748 748 748 747 747 746 745 744 744 744 744 744 743 743 742 741 741 741 740 740 739 739 739 739 738 738 738 738 739
775 775 776 778 779 779 781 782 783 784 785 787 788 789 789 790 790 790 791 791 791 791 791 791 790 790 789 788 787 786 785 784 782 780 778 776 775 774 772 770 768 766 764 761 760 759 758 757 757 756 756 756 754 754 753 752 752 752 751 750 749 748 747 747 746 746 746 745 745 744 743 743 742 742 741 741 741 741 742 741 741 741 740 740 741
776 776 778 779 779 780 782 783 784 785 786 787 789 789 789 790 791 791 791 792 792 792 792 791 791 790 790 789 788 787 785 784 783 781 779 777 776 775 774 773 771 769 767 764 763 763 762 761 760 759 759 759 758 757 757 755 755 755 754 753 752 751 750 750 749 749 748 747 746 746 745 744 744 743 743 743 743 743 743 743 743 743 743 743 743
777 778 779 779 779 780 782 783 784 785 786 787 788 788 789 789 790 791 791 792 792 792 792 792 791 791 790 790 789 787 786 785 783 782 780 778 777 776 776 775 774 772 770 768 767 766 766 764 763 763 762 761 761 761 760 759 758 758 757 756 756 755 754 753 752 751 750 749 748 747 746 746 746 745 745 745 745 745 745 745 744 744 744 744 745
777 778 779 780 780 780 781 782 783 784 784 785 786 787 788 788 788 789 791 791 792 792 792 792 792 791 791 790 789 788 787 785 784 783 781 780 779 778 777 777 776 774 773 771 770 770 769 768 767 766 765 764 764 763 763 762 761 761 760 760 759 758 757 756 755 754 753 752 751 750 749 748 748 747 747 747 747 747 747 746 746 745 745 745 745
777 778 780 780 780 780 781 781 782 782 783 784 786 787 788 788 788 789 790 790 791 792 792 792 792 791 791 791 790 789 787 786 785 784 782 781 781 780 778 778 777 776 775 774 774 773 773 772 771 769 768 767 767 766 765 764 764 763 762 762 761 761 759 758 757 756 756 754 754 753 752 751 751 750 750 749 748 748 748 747 747 746 746 746 746
777 779 780 781 780 780 780 781 781 782 783 784 786 787 787 788 788 789 789 790 791 791 792 792 792 792 791 791 790 789 788 787 786 785 784 783 782 781 780 779 779 779 777 777 776 776 775 775 774 772 771 770 769 768 768 767 766 765 765 764 763 763 762 761 759 759 758 757 756 755 755 754 753 753 752 751 750 750 749 749 748 747 747 747 746
777 779 780 780 780 780 780 781 782 783 784 785 786 787 787 787 788 789 790 790 791 792 792 792 792 792 792 791 790 789 788 788 787 786 786 785 784 783 782 782 782 781 780 779 779 779 778 777 777 776 775 773 772 771 770 769 768 768 767 766 766 765 764 763 762 761 761 760 759 758 757 756 756 755 754 753 752 752 751 750 750 749 748 748 747
777 778 779 780 780 780 781 782 782 783 785 786 786 787 787 787 788 789 790 791 791 792 792 792 792 792 792 791 790 789 789 789 788 788 787 786 785 785 784 784 784 783 782 782 781 781 780 780 779 778 777 776 775 773 773 772 771 770 769 769 768 767 767 766 765 764 763 762 761 760 759 758 758 757 756 755 754 753 753 752 751 751 750 749 749
776 777 778 779 779 780 781 782 783 784 785 786 786 786 787 787 788 789 790 791 791 792 793 793 793 793 792 791 790 789 789 789 789 789 788 787 787 786 786 786 785 785 784 784 783 783 782 782 782 781 780 779 778 776 775 774 774 773 772 771 770 770 769 768 766 766 765 764 763 762 761 760 759 759 758 757 756 756 755 754 753 752 752 751 751
775 777 778 779 780 781 781 782 783 784 784 785 786 786 787 787 788 789 790 791 792 792 793 793 793 793 792 792 791 790 790 790 790 789 789 788 788 788 787 787 786 786 786 786 785 785 784 784 783 782 782 781 780 779 778 776 776 775 775 774 772 772 771 770 769 767 766 766 765 764 763 762 761 760 759 758 758 758 757 756 755 754 754 753 752
775 776 777 778 779 780 781 781 782 783 783 785 785 786 787 787 788 789 790 791 792 792 793 794 794 793 793 792 792 791 791 791 790 790 789 789 789 789 789 788 788 787 787 787 787 786 786 785 785 784 783 783 782 781 780 779 778 777 777 776 775 774 773 772 771 769 768 767 767 766 765 764 763 762 761 760 760 759 759 758 757 756 755 754 754
774 775 776 777 778 779 779 780 781 782 783 785 785 786 787 788 788 789 790 790 791 792 793 794 794 793 793 793 792 792 791 791 791 791 790 790 790 789 789 789 789 788 788 788 788 787 787 786 786 786 785 784 783 782 782 781 780 779 779 778 777 776 775 774 773 771 770 769 768 767 767 766 765 764 763 762 761 761 760 760 759 758 757 756 755
774 775 776 776 777 777 778 779 780 781 783 784 785 786 787 788 788 789 790 790 791 792 793 794 794 793 793 793 792 792 791 791 791 791 790 790 790 790 790 790 790 789 789 789 789 788 788 787 787 787 786 785 785 784 783 782 782 781 780 779 778 778 777 776 775 773 772 771 770 769 768 768 767 766 765 764 763 762 762 761 761 760 759 758 757
773 774 774 775 775 776 777 779 780 781 783 784 785 787 787 788 789 789 790 791 792 792 792 793 793 793 793 792 792 791 792 792 791 791 791 791 790 790 790 790 790 790 790 789 789 789 788 788 788 787 787 786 786 785 784 784 783 782 781 780 780 779 778 777 776 775 774 773 772 770 770 769 769 768 767 766 765 764 763 762 762 761 760 759 758
773 773 773 773 774 775 777 779 780 781 782 784 786 787 787 788 789 789 790 791 791 791 791 791 791 792 792 792 791 791 791 791 791 791 791 791 791 791 791 791 790 790 790 790 789 789 788 788 788 788 788 787 787 786 785 785 784 783 782 781 781 780 779 778 777 776 775 775 773 772 771 771 770 769 769 768 767 766 765 764 763 762 761 760 760
771 772 772 772 773 775 777 778 779 780 782 784 785 786 787 788 788 789 790 789 790 790 790 790 791 791 791 791 791 791 791 791 791 791 791 791 791 791 791 791 791 791 790 790 790 789 789 789 789 789 788 788 787 787 786 785 785 784 782 782 781 781 780 779 778 777 776 776 774 773 772 772 771 771 770 769 768 768 767 766 765 764 762 761 760
770 771 771 771 772 774 776 777 778 780 781 783 784 785 786 787 787 788 789 789 789 790 789 789 790 790 790 791 791 790 790 790 790 790 791 791 791 791 791 791 791 791 790 790 790 790 790 790 789 789 789 788 787 787 786 786 785 784 783 782 782 781 780 780 779 778 777 777 775 774 774 773 773 772 771 770 769 769 768 767 766 765 764 762 761
770 770 770 770 771 773 774 776 778 779 781 782 783 784 785 786 787 788 788 789 789 789 789 789 789 789 789 790 790 790 790 790 790 790 790 790 790 791 791 791 791 791 791 791 791 790 790 790 790 789 789 788 787 787 787 786 785 784 783 783 782 781 781 780 779 779 778 777 776 775 775 774 774 773 772 771 771 770 769 768 767 766 765 763 762
769 769 769 769 770 771 773 775 777 778 779 780 782 783 783 784 786 786 787 788 788 788 788 788 788 788 789 789 789 789 789 789 789 789 789 790 790 790 790 790 791 791 791 791 791 791 790 790 790 789 789 788 788 787 787 786 785 785 784 783 782 782 781 781 780 779 779 778 777 776 776 775 775 774 773 773 772 771 770 769 768 767 766 764 763
767 767 767 768 768 769 772 774 775 776 778 779 780 781 782 783 784 785 785 786 786 786 786 786 787 787 788 788 788 788 788 788 788 789 789 789 789 790 790 790 791 791 791 791 791 791 791 790 790 789 789 788 788 788 787 786 785 785 784 783 783 782 782 781 781 780 780 779 778 778 777 776 776 775 774 773 773 772 771 770 769 768 766 765 764
765 765 766 766 767 768 771 772 773 774 776 777 779 780 781 782 782 783 783 784 784 785 785 786 786 787 787 787 787 788 788 788 788 788 788 788 789 789 790 790 790 790 791 791 791 791 791 790 790 790 789 788 788 787 786 786 785 785 784 783 783 782 782 781 781 781 780 780 779 779 778 777 777 776 775 774 773 773 772 771 769 768 767 766 765